Weather History for Phoenix, AZ

Change the Weather History Date:

Thursday, January 10, 2013

  Actual Average Record
Temperature  
Mean Temperature 54 °F 56 °F  
Max Temperature 61 °F 67 °F 84 °F (1990)
Min Temperature 46 °F 45 °F 25 °F (1964)
Degree Days  
Heating Degree Days 11 9  
Month to date heating degree days 130 96  
Since 1 July heating degree days 411 497  
Cooling Degree Days 0 0  
Month to date cooling degree days 0 0  
Year to date cooling degree days 0 0  
Growing Degree Days 4 (Base 50)    
Moisture  
Dew Point 27 °F    
Average Humidity 46    
Maximum Humidity 66    
Minimum Humidity 25    
Precipitation  
Precipitation 0.01 in 0.03 in 1.51 in (1905)
Month to date precipitation 0.01 0.30  
Year to date precipitation 0.01 0.30  
Snow  
Snow 0.00 in - - ()
Month to date snowfall 0.0  
Year to date snowfall 0.0  
Since 1 July snowfall 0.0  
Snow Depth 0.00 in    
Sea Level Pressure  
Sea Level Pressure 29.86 in    
Wind  
Wind Speed 8 mph (SE)    
Max Wind Speed 25 mph    
Max Gust Speed 35 mph    
Visibility 10 miles    
Events Rain    
T = Trace of Precipitation, MM = Missing Value Source: NWS Daily Summary

Daily Weather History Graph

Daily Weather History Graph

Search for Another Location

Airport:

Trip Planner

Search our weather history database for the weather conditions in past years. The results will help you decide how hot, cold, wet, or windy it might be!

Date:

Astronomy

Jan. 10, 2013 Rise Set
Actual Time 7:32 AM MST 5:39 PM MST
Civil Twilight 7:05 AM MST 6:06 PM MST
Nautical Twilight 6:34 AM MST 6:36 PM MST
Astronomical Twilight 6:04 AM MST 7:06 PM MST
Moon 6:16 AM MST (1/10) 4:50 PM MST (1/10)
Length of Visible Light 11h 00m
Length of Day
10h 06m
Waning Crescent, 2% of the Moon is Illuminated
Jan 10
Waning Crescent
Jan 11
New
Jan 18
First Quarter
Jan 26
Full
Feb 3
Last Quarter

Hourly Weather History & Observations

Time (MST) Temp. Windchill Dew Point Humidity Pressure Visibility Wind Dir Wind Speed Gust Speed Precip Events Conditions
12:51 AM 51.1 °F - 27.0 °F 39% 29.95 in 10.0 mi East 12.7 mph - N/A   Clear
1:51 AM 50.0 °F - 30.0 °F 46% 29.94 in 10.0 mi East 9.2 mph - N/A   Clear
2:51 AM 50.0 °F - 28.9 °F 44% 29.94 in 10.0 mi East 6.9 mph - N/A   Clear
3:51 AM 46.9 °F - 28.9 °F 50% 29.93 in 10.0 mi East 10.4 mph - N/A   Clear
4:51 AM 46.4 °F 45.2 °F 28.4 °F 50% 29.93 in 10.0 mi East 3.5 mph - N/A   Partly Cloudy
5:51 AM 46.0 °F 43.9 °F 28.0 °F 50% 29.91 in 10.0 mi East 4.6 mph - N/A   Partly Cloudy
6:51 AM 46.0 °F 41.4 °F 25.0 °F 44% 29.90 in 10.0 mi ESE 9.2 mph - N/A   Mostly Cloudy
7:51 AM 48.2 °F - 24.8 °F 40% 29.94 in 10.0 mi East 5.8 mph - N/A   Mostly Cloudy
8:51 AM 50.0 °F - 24.1 °F 36% 29.93 in 10.0 mi SE 3.5 mph - N/A   Overcast
9:51 AM 53.1 °F - 25.0 °F 34% 29.91 in 10.0 mi ESE 11.5 mph - N/A   Mostly Cloudy
10:51 AM 54.0 °F - 25.0 °F 33% 29.89 in 10.0 mi East 8.1 mph - N/A   Mostly Cloudy
11:51 AM 57.9 °F - 23.0 °F 26% 29.85 in 10.0 mi ESE 5.8 mph - N/A   Mostly Cloudy
12:51 PM 57.9 °F - 25.0 °F 28% 29.81 in 10.0 mi East 4.6 mph - N/A   Overcast
1:51 PM 59.0 °F - 27.0 °F 29% 29.79 in 10.0 mi Calm Calm - N/A   Overcast
2:51 PM 57.0 °F - 28.9 °F 34% 29.78 in 10.0 mi SW 4.6 mph - N/A   Overcast
3:51 PM 55.0 °F - 28.9 °F 37% 29.78 in 10.0 mi West 5.8 mph - N/A   Overcast
4:51 PM 55.0 °F - 28.9 °F 37% 29.78 in 10.0 mi WSW 3.5 mph - N/A   Overcast
5:51 PM 55.0 °F - 28.9 °F 37% 29.78 in 10.0 mi Calm Calm - N/A   Mostly Cloudy
6:51 PM 57.0 °F - 26.1 °F 30% 29.77 in 10.0 mi WNW 10.4 mph - N/A   Mostly Cloudy
7:51 PM 55.9 °F - 30.0 °F 37% 29.77 in 10.0 mi Calm Calm - N/A   Scattered Clouds
8:51 PM 54.0 °F - 43.0 °F 66% 29.78 in 10.0 mi West 10.4 mph - 0.01 in Rain Light Rain
9:51 PM 54.0 °F - 30.9 °F 41% 29.81 in 10.0 mi West 24.2 mph - N/A   Overcast
10:51 PM 52.0 °F - 23.0 °F 32% 29.84 in 10.0 mi West 20.7 mph 26.5 mph N/A   Overcast
11:51 PM 51.1 °F - 21.9 °F 32% 29.86 in 10.0 mi West 20.7 mph - N/A   Overcast